Wind_Speed
22 23 23 18 13 13 17 17 13 13 15 15 17 18 18 21 19 15 13 12 13 12 13 16 20 22 24 25 22 21 20 22 24 24 26 26 26 28 30 32 35 39 40
23 22 20 17 15 17 18 16 13 15 17 17 15 17 16 16 12 10 8 7 8 10 10 10 13 16 16 15 23 22 22 25 25 25 27 30 32 33 34 35 37 38 39
23 21 17 15 15 16 18 15 13 18 18 15 16 17 16 13 8 8 10 6 8 11 14 12 12 17 19 18 18 24 25 26 27 29 32 33 36 39 39 38 38 35 35
23 22 16 15 17 16 10 12 18 16 14 15 15 15 14 14 11 9 9 9 9 12 14 15 19 22 22 23 24 26 26 28 31 34 35 36 38 39 39 38 37 34 33
20 20 17 16 14 17 14 17 16 14 15 16 16 14 12 12 10 10 10 12 13 13 15 17 18 19 23 26 29 29 31 35 36 36 38 39 37 33 31 34 34 33 31
19 19 18 17 15 16 16 18 16 14 15 16 15 11 10 11 13 12 14 17 17 17 18 17 16 14 14 16 19 22 25 29 33 34 32 30 29 30 33 35 33 28 27
20 20 19 19 18 17 17 18 15 14 14 14 11 7 8 9 11 11 12 11 11 11 8 10 11 10 15 19 23 25 25 25 26 28 30 30 31 32 33 33 33 30 26
21 21 20 19 16 19 17 16 13 13 15 14 13 12 11 9 10 10 9 10 11 10 10 10 11 11 17 15 15 15 20 25 27 26 27 28 31 31 32 34 35 34 32
22 26 24 17 16 18 19 16 15 13 13 13 11 9 9 9 10 8 6 6 10 10 11 16 16 16 17 16 18 16 14 18 19 19 19 23 27 29 30 30 29 32 32
24 25 22 17 15 14 14 16 15 11 10 9 7 7 9 8 5 4 6 7 8 8 10 14 18 19 19 19 23 23 23 26 23 23 24 24 22 20 25 27 28 27 28
31 27 25 20 15 13 14 15 15 15 13 8 4 5 3 4 6 6 6 10 10 10 12 14 17 19 20 25 28 26 21 24 26 26 26 28 28 28 29 29 29 29 29
31 27 25 24 19 18 17 17 19 18 16 14 12 13 13 11 12 13 11 12 12 12 15 16 17 18 21 26 29 29 28 30 28 27 29 28 27 28 30 31 33 35 35
29 31 25 25 27 26 25 23 22 24 22 19 18 20 14 16 17 16 13 14 16 17 19 21 21 22 23 27 31 34 34 32 31 30 33 35 34 35 38 40 40 40 41
24 28 29 29 28 30 29 26 26 22 21 22 21 18 17 18 18 17 17 18 17 18 21 22 25 26 27 32 33 33 31 30 31 35 36 34 38 40 43 42 44 44 45
24 25 29 30 31 30 33 31 27 23 22 22 22 20 19 22 18 17 18 22 23 25 22 24 27 30 30 34 34 33 33 32 36 38 37 40 42 43 39 38 40 46 47
30 29 31 30 33 31 33 34 31 28 26 27 25 26 23 25 21 19 20 22 25 27 28 27 32 33 31 31 33 33 35 36 39 40 44 46 46 42 46 50 51 50 52
35 31 29 30 32 30 29 32 30 30 29 32 27 24 25 27 23 21 20 21 22 25 28 28 36 36 34 34 35 36 38 40 47 44 43 43 47 46 46 51 56 56 62
38 28 24 28 28 28 26 26 28 26 27 29 31 29 27 27 21 20 21 22 24 23 28 29 30 32 36 35 38 41 43 46 48 52 52 56 57 58 57 60 64 68 67
35 19 22 28 25 25 26 28 29 29 29 29 30 29 27 27 26 22 26 26 29 27 25 27 30 35 35 41 45 48 51 52 54 59 62 63 64 66 67 67 70 75 75
30 22 25 28 23 22 23 25 29 32 34 34 29 29 35 33 31 31 31 35 34 29 30 31 35 39 46 48 49 54 55 58 60 63 67 68 71 79 78 77 82 85 88
31 28 27 30 25 22 25 24 24 30 35 37 38 39 34 33 34 35 38 38 34 33 36 39 42 49 52 52 56 63 65 68 66 68 76 80 82 86 85 86 90 86 95
27 26 28 29 28 24 24 27 26 30 35 36 35 34 34 34 35 40 37 34 34 38 43 47 51 54 60 63 66 68 69 68 73 76 79 84 86 90 90 93 98 102 108
30 32 31 30 30 27 26 27 28 31 33 33 33 32 31 34 37 36 32 35 41 45 48 52 57 60 65 69 73 77 74 74 76 81 82 83 89 93 98 109 112 117 114
34 37 34 30 28 30 25 27 27 30 33 35 37 35 33 32 36 39 41 43 46 52 57 59 59 64 70 72 69 74 75 77 82 87 97 94 95 101 112 119 113 121 122
40 34 35 28 25 26 27 28 28 28 32 37 31 30 28 33 38 43 46 49 50 56 59 63 67 68 71 79 80 86 81 87 91 96 93 99 104 116 126 125 120 122 122
45 37 36 31 27 30 30 32 29 27 29 31 30 32 36 40 41 43 47 52 56 62 66 70 71 72 80 86 81 86 87 92 98 102 98 106 116 125 126 124 129 124 124
Wind_Direction
339 333 327 310 302 295 295 297 292 288 288 287 287 301 301 299 296 282 272 269 253 247 252 252 255 255 255 257 255 261 257 255 255 258 261 261 267 273 278 280 277 274 271
337 336 327 311 302 299 297 298 294 299 293 302 316 320 311 313 321 326 319 299 261 237 241 255 264 264 255 279 260 258 258 261 262 260 261 262 268 277 282 285 284 282 275
338 337 331 319 314 306 300 288 297 303 304 314 325 318 314 320 316 327 308 311 269 263 257 263 282 272 270 281 274 262 263 267 268 272 275 273 278 285 286 287 283 280 276
334 337 333 318 318 318 301 296 301 305 314 314 324 334 318 319 312 299 281 286 280 279 277 276 275 278 280 278 278 277 273 274 274 280 281 280 282 285 287 283 283 282 282
331 339 336 323 318 318 308 307 306 291 307 316 325 318 315 311 297 264 258 265 269 270 277 282 279 283 278 276 272 272 268 272 277 281 282 282 281 281 282 282 287 291 289
331 337 334 327 316 315 309 310 301 287 311 316 312 296 298 294 299 299 287 292 300 296 299 304 305 298 291 290 289 286 284 281 279 277 282 281 278 274 272 278 285 290 288
329 332 329 322 318 316 312 310 299 291 304 303 289 292 291 284 288 280 292 302 301 310 309 307 306 310 302 293 294 296 297 294 289 288 278 276 279 280 280 284 283 283 283
333 332 328 318 317 319 315 304 298 300 304 306 286 276 291 306 311 309 301 307 312 302 310 320 342 328 333 348 346 318 301 284 282 286 291 291 284 279 281 282 282 283 283
323 319 320 313 308 313 312 317 309 311 319 317 312 291 283 312 314 305 317 303 333 305 310 317 329 326 323 332 342 337 337 329 325 317 308 300 293 290 287 287 288 285 286
327 327 314 309 301 303 307 311 316 315 322 328 310 305 302 304 334 305 262 323 331 337 310 331 332 324 326 338 346 336 334 339 335 330 324 325 327 310 302 297 289 289 289
324 320 319 305 290 285 299 299 300 305 305 312 312 303 279 353 338 332 303 301 310 313 313 324 324 334 334 338 340 335 326 330 328 328 328 327 324 315 310 311 305 297 292
325 315 324 307 292 280 285 283 290 296 301 299 287 298 280 288 292 297 294 305 303 295 301 311 321 324 328 328 334 332 324 318 316 309 316 313 315 313 307 305 303 302 301
321 313 310 315 301 287 289 288 286 283 282 288 291 304 297 287 292 285 292 297 299 300 303 308 310 308 317 321 320 322 322 325 323 320 315 312 305 300 301 301 301 299 296
324 311 304 305 312 302 291 288 283 281 282 283 285 290 296 289 284 271 274 286 291 287 290 295 303 299 299 312 315 320 321 324 317 318 316 313 310 306 302 301 299 296 295
318 311 301 302 307 306 293 291 286 278 275 279 280 285 296 294 275 269 271 281 285 284 289 296 298 295 307 308 311 314 316 313 314 312 313 312 312 307 301 297 311 306 299
322 315 304 301 302 297 291 288 286 281 283 280 285 286 285 296 283 274 278 286 287 285 282 291 304 303 302 310 309 303 309 310 314 313 309 306 312 305 304 308 302 306 303
313 312 303 298 299 299 289 290 288 288 289 282 284 283 281 289 273 289 299 291 292 290 288 295 303 300 310 312 309 310 308 305 314 312 311 307 309 311 310 307 309 308 309
306 305 293 297 297 303 298 287 284 286 285 287 284 284 285 282 258 291 298 296 294 298 302 305 311 308 313 308 308 310 307 307 314 316 315 311 306 308 304 305 307 305 306
305 279 288 295 298 298 291 285 282 283 283 278 277 276 279 270 262 291 283 290 300 302 315 317 313 310 309 309 310 311 308 311 308 312 312 310 311 310 302 297 298 301 299
303 274 287 290 301 308 305 301 292 288 283 277 275 269 271 274 270 288 291 296 295 293 301 301 309 308 309 307 306 306 305 304 306 309 308 309 309 310 307 302 303 301 298
302 286 284 294 299 305 315 311 298 291 286 283 281 282 277 278 280 287 289 289 296 291 298 298 300 304 305 307 305 307 301 300 300 303 307 308 307 308 304 300 301 299 300
294 292 288 290 296 308 317 311 299 290 289 286 286 282 285 281 289 289 293 292 297 300 303 300 299 300 305 308 306 309 310 309 310 306 304 305 304 304 302 302 302 300 298
287 295 288 288 295 303 311 316 299 289 289 288 283 288 288 293 293 295 295 299 297 298 298 302 303 301 305 303 308 309 308 307 307 302 301 300 305 303 302 304 302 302 297
289 289 284 283 292 295 306 316 313 297 287 285 286 291 298 298 301 302 300 298 298 297 298 294 297 298 300 302 305 303 305 306 310 310 309 303 305 305 305 306 302 299 296
286 287 280 278 289 293 301 308 311 303 294 286 289 301 299 306 307 305 299 296 293 292 294 296 297 297 303 307 305 308 309 312 310 308 306 303 304 307 308 307 301 296 292
288 289 279 269 283 284 284 300 305 305 304 299 294 291 292 298 299 298 298 293 290 288 289 293 293 297 305 308 308 312 312 313 311 310 309 310 309 310 311 306 302 297 292
Height
10842 10838 10833 10830 10828 10827 10826 10825 10825 10824 10824 10823 10822 10820 10817 10815 10811 10807 10805 10804 10805 10806 10808 10809 10809 10809 10809 10809 10809 10810 10809 10809 10809 10809 10809 10809 10808 10807 10806 10804 10803 10800 10799
10839 10835 10832 10829 10828 10826 10825 10823 10823 10821 10821 10820 10818 10816 10813 10811 10809 10807 10805 10805 10805 10806 10806 10807 10807 10807 10807 10807 10807 10807 10806 10806 10806 10805 10805 10804 10803 10801 10800 10798 10796 10793 10792
10835 10832 10829 10827 10826 10825 10823 10822 10820 10819 10818 10818 10815 10813 10811 10809 10807 10806 10805 10804 10804 10805 10805 10805 10805 10805 10804 10803 10803 10803 10803 10803 10802 10802 10800 10798 10797 10794 10793 10791 10788 10787 10785
10832 10830 10827 10825 10824 10823 10821 10820 10819 10817 10816 10815 10813 10811 10809 10807 10806 10805 10804 10803 10803 10803 10803 10804 10803 10803 10801 10800 10800 10800 10799 10798 10797 10796 10794 10792 10790 10788 10786 10784 10782 10781 10778
10832 10829 10826 10824 10822 10821 10820 10818 10816 10815 10814 10812 10810 10809 10806 10805 10805 10804 10803 10802 10802 10801 10801 10801 10800 10800 10798 10797 10795 10794 10793 10792 10791 10789 10787 10785 10783 10782 10780 10777 10776 10773 10772
10830 10827 10824 10822 10821 10819 10817 10815 10813 10812 10811 10809 10808 10806 10805 10804 10803 10803 10802 10801 10800 10800 10799 10798 10797 10796 10795 10792 10790 10789 10788 10786 10784 10782 10780 10778 10776 10774 10772 10770 10770 10768 10766
10829 10825 10822 10821 10819 10817 10814 10812 10810 10810 10808 10806 10805 10805 10804 10803 10802 10801 10801 10800 10798 10798 10796 10796 10795 10794 10792 10790 10787 10784 10782 10780 10778 10776 10773 10772 10771 10770 10768 10765 10763 10762 10760
10827 10824 10821 10818 10816 10813 10811 10809 10807 10807 10806 10805 10803 10803 10802 10802 10801 10800 10799 10799 10797 10796 10795 10794 10793 10792 10790 10788 10785 10781 10778 10776 10773 10771 10769 10767 10765 10763 10762 10760 10759 10758 10756
10824 10822 10819 10816 10814 10812 10809 10806 10805 10805 10804 10803 10802 10801 10802 10801 10801 10800 10799 10798 10796 10795 10793 10791 10789 10789 10787 10784 10782 10779 10776 10773 10769 10766 10764 10762 10760 10758 10756 10754 10752 10751 10749
10820 10817 10815 10813 10811 10809 10808 10806 10804 10803 10801 10801 10800 10800 10800 10799 10799 10798 10797 10796 10794 10792 10790 10788 10785 10783 10782 10780 10777 10774 10771 10768 10767 10764 10761 10758 10756 10753 10751 10749 10747 10746 10743
10816 10814 10811 10809 10807 10806 10806 10803 10802 10801 10800 10799 10799 10799 10798 10797 10796 10795 10794 10792 10790 10789 10787 10786 10783 10780 10777 10774 10772 10770 10767 10764 10762 10759 10756 10754 10751 10750 10748 10745 10743 10741 10739
10812 10810 10808 10805 10804 10803 10802 10801 10799 10798 10797 10797 10797 10796 10795 10794 10793 10792 10790 10789 10787 10786 10784 10782 10779 10777 10773 10770 10767 10764 10761 10759 10756 10754 10752 10749 10746 10744 10741 10739 10737 10736 10733
10808 10807 10805 10802 10800 10798 10798 10798 10797 10795 10794 10793 10793 10791 10790 10790 10788 10787 10786 10784 10782 10781 10779 10777 10774 10772 10769 10767 10763 10759 10756 10754 10750 10747 10745 10743 10741 10739 10736 10733 10731 10728 10726
10806 10803 10801 10799 10797 10795 10793 10792 10792 10791 10789 10788 10788 10787 10786 10785 10783 10782 10781 10779 10777 10775 10773 10771 10768 10767 10764 10762 10759 10755 10751 10747 10744 10741 10738 10735 10734 10731 10728 10725 10722 10720 10718
10802 10800 10797 10794 10792 10790 10788 10787 10786 10785 10785 10784 10782 10781 10781 10779 10778 10777 10776 10773 10771 10769 10768 10766 10763 10761 10758 10755 10751 10747 10744 10741 10738 10735 10731 10728 10725 10721 10718 10716 10714 10711 10708
10798 10794 10793 10791 10788 10785 10783 10782 10781 10779 10779 10777 10777 10777 10776 10774 10773 10771 10769 10767 10764 10763 10761 10759 10756 10754 10750 10747 10744 10740 10737 10734 10731 10727 10723 10719 10716 10713 10709 10706 10703 10700 10698
10793 10789 10787 10785 10783 10780 10778 10777 10776 10775 10773 10772 10771 10771 10770 10769 10766 10765 10763 10761 10758 10756 10754 10752 10750 10746 10744 10740 10737 10733 10729 10726 10723 10718 10716 10711 10707 10702 10697 10694 10688 10684 10682
10789 10784 10781 10780 10777 10773 10771 10771 10770 10770 10769 10767 10766 10765 10763 10762 10760 10758 10756 10754 10753 10750 10748 10745 10742 10739 10735 10731 10729 10725 10722 10717 10714 10710 10705 10701 10696 10691 10686 10680 10675 10671 10668
10783 10779 10777 10774 10773 10769 10765 10765 10764 10764 10762 10761 10759 10757 10756 10754 10753 10751 10749 10747 10745 10742 10740 10737 10734 10731 10728 10725 10721 10717 10711 10705 10700 10695 10689 10684 10680 10676 10671 10667 10662 10655 10648
10775 10773 10771 10769 10767 10764 10762 10759 10758 10757 10756 10754 10752 10750 10748 10747 10746 10744 10742 10739 10737 10734 10731 10728 10726 10723 10719 10715 10710 10706 10700 10695 10688 10683 10675 10668 10661 10656 10649 10645 10640 10636 10632
10767 10766 10765 10762 10762 10759 10756 10754 10752 10751 10749 10747 10745 10744 10742 10741 10739 10737 10735 10731 10728 10725 10723 10719 10716 10712 10708 10705 10700 10694 10688 10682 10676 10669 10657 10652 10645 10636 10630 10624 10615 10606 10600
10760 10759 10758 10756 10755 10752 10749 10746 10744 10742 10740 10739 10738 10737 10736 10735 10732 10729 10725 10722 10719 10717 10714 10711 10705 10699 10694 10690 10684 10680 10675 10667 10659 10653 10644 10634 10627 10619 10608 10598 10590 10582 10572
10753 10751 10749 10748 10746 10745 10743 10740 10736 10734 10733 10732 10732 10731 10729 10727 10723 10720 10717 10714 10711 10707 10702 10697 10692 10689 10684 10678 10670 10664 10659 10652 10646 10634 10627 10617 10607 10595 10583 10571 10559 10547 10535
10746 10743 10742 10741 10740 10737 10735 10732 10729 10727 10725 10724 10723 10721 10719 10717 10715 10712 10708 10704 10699 10694 10690 10685 10680 10675 10670 10665 10657 10647 10639 10632 10625 10619 10605 10593 10582 10572 10561 10546 10528 10508 10492
10737 10737 10734 10734 10733 10730 10728 10725 10722 10720 10717 10715 10714 10711 10709 10707 10704 10700 10697 10693 10688 10682 10677 10672 10667 10661 10655 10647 10636 10630 10619 10609 10600 10593 10587 10568 10554 10537 10519 10502 10486 10474 10461
10728 10728 10727 10727 10725 10723 10721 10719 10716 10713 10711 10709 10707 10704 10701 10698 10694 10690 10686 10681 10676 10670 10664 10658 10651 10645 10637 10629 10618 10608 10596 10586 10573 10563 10553 10541 10524 10507 10480 10456 10433 10422 10408